Regional Weather Roundup
Issued by NWS

Home | Current Version | Previous Version | Graphics & Text | Print | Product List | Glossary On
Versions: 1 2 3 4 5 6 7 8 9 10 11 12 13 14 15 16 17 18 19 20 21 22 23 24 25 26 27 28 29 30 31 32 33 34 35 36 37 38 39 40 41 42 43 44 45 46 47 48 49 50
000
ASUS45 KTFX 242119
RWRMT
MONTANA HOURLY WEATHER ROUNDUP
NATIONAL WEATHER SERVICE GREAT FALLS MT
219 PM MST SAT JAN 24 2015

NOTE: "FAIR" INDICATES FEW OR NO CLOUDS BELOW 12000 FEET WITH NO
SIGNIFICANT WEATHER AND/OR OBSTRUCTIONS TO VISIBILITY.

* THESE STATIONS ARE NOT UNDER NWS QUALITY CONTROL. THEY DO NOT
   REPORT WEATHER SUCH AS PRECIPITATION OR FOG.

MTZ001>007-043-242200-
WEST OF THE DIVIDE
CITY           SKY/WX    TMP DP  RH WIND       PRES   REMARKS
KALISPELL      CLOUDY    43  37  79 S7        30.22S
MISSOULA       CLOUDY    37  36  96 S7        30.28F WCI  32
BUTTE          CLOUDY    45  34  65 NW12G17   30.24R
MULLAN PASS    FOG       37  37 100 VRB3      30.27S VSB M1/4
* ANACONDA     PTSUNNY   45  36  71 NE6        N/A
* ESSEX        N/A       40  38  93 E1         N/A
* EUREKA APT   PTCLDY    48  36  63 CALM       N/A
* HAMILTON APT PTSUNNY   55  37  51 SE3       30.26F
* LIBBY APT    PTSUNNY   46  41  83 CALM      30.26S
* LINCOLN      N/A       44  37  76 W6G15      N/A
* LOOKOUT PASS N/A       41  41 100 N7         N/A
* POLSON       N/A       45  38  77 S1G6       N/A
* RONAN APT    CLOUDY    45  45 100 N/A        N/A
* SEELEY LAKE  N/A       49  41  74 SW1G9      N/A
* THOMP F APT  PTSUNNY   27  20  75 S7         N/A   WCI  19
$$

MTZ008-052>055-242200-
SOUTHWEST MONTANA
CITY           SKY/WX    TMP DP  RH WIND       PRES   REMARKS
BOZEMAN        CLOUDY    43  34  71 E6        30.21S
DILLON         CLOUDY    48  32  54 SW21      30.22R
* W YELLOWSTON PTSUNNY   26  19  75 SW6G14     N/A   WCI  19
* THREE FORKS  CLOUDY    48  36  63 N/A        N/A
* BOULDER HILL N/A       44  27  51 N6G16      N/A
* MONIDA PASS  N/A       21  21 100 SE22       N/A   WCI   5
* RAYNOLDS PAS N/A       21   4  48 SE25G33    N/A   WCI   4
* WHITEHALL    N/A       50  33  52 SW10G24    N/A
* WISE RIVER   N/A       44  35  71 NW12G19    N/A
$$

MTZ009>010-012-014-046-048-049-054-242200-
EAST SLOPES AND CENTRAL MONTANA
CITY           SKY/WX    TMP DP  RH WIND       PRES   REMARKS
CUT BANK       PTCLDY    52  34  50 W16       30.08R
GREAT FALLS    PTSUNNY   50  34  54 W14       30.10R
HELENA         CLOUDY    48  36  63 W18G24    30.17S
MALMSTROM AFB  PTSUNNY   45  37  74 E8        30.11S
* CONRAD       PTSUNNY   52  37  57 SW18G25    N/A
* DEARBORN     N/A       54  34  47 S8         N/A
* EAST GLACIER N/A       43  28  56 NW16G24    N/A
* MONARCH      N/A       40  29  65 NW11G18    N/A   WCI  33
* PENDROY      N/A       47  31  54 W21G28     N/A
* ROGERS PASS  N/A       40  35  82 SE6G14     N/A   WCI  36
* SWEET GRASS  N/A       47  29  50 NW24G31    N/A
* WHITE SULPH  N/A       44  33  65 W4G12      N/A
$$

MTZ011-013-016-021-035-040-045-047-050-051-242200-
NORTH CENTRAL MONTANA
CITY           SKY/WX    TMP DP  RH WIND       PRES   REMARKS
HAVRE          PTCLDY    48  36  63 W14       30.03S
LEWISTOWN      CLOUDY    37  32  82 W12       30.09R WCI  29
* N BAR RANCH  PTSUNNY   41  32  70 NW15      30.06S
* CHINOOK      PTCLDY    48  34  59 W17G23    30.01S
* MALTA APT    SUNNY     46  32  58 W20G28     N/A
* CHESTER      N/A       43  34  71 W7         N/A
* DENTON       N/A       41  34  76 W8         N/A
* GEYSER       N/A       47  31  54 W11        N/A
* JUDITH GAP   N/A       39  36  89 NW14G19    N/A   WCI  31
* LOMA         N/A       50  35  57 SW9        N/A
$$

MTZ017>020-022>027-061-062-242200-
NORTHEAST MONTANA
CITY           SKY/WX    TMP DP  RH WIND       PRES   REMARKS
GLASGOW        SUNNY     45  36  71 NW23G33   29.87R
GLENDIVE       PTCLDY    45  36  71 W33G44    29.80R
SIDNEY         PTSUNNY   45  36  71 W23G32    29.76R
WOLF POINT     PTCLDY    46  36  68 NW24G35   29.82R
* BEAVER HILL  N/A       41  35  79 NW26G34    N/A
* CIRCLE       N/A       45  39  80 NW16G23    N/A
* LINDSAY DVD  N/A       41  35  79 W29G39     N/A
* NAVAJO       N/A       40  34  79 NW23G31    N/A   WCI  30
* PLENTYWOOD A PTCLDY    39  36  89 NW22G29   29.72R WCI  29
* POPLAR APT   PTCLDY    45  36  71 W18G25    29.79R
* SACO         N/A       47  35  63 NW21G32    N/A
* SCOBEY APT   SUNNY     41  28  60 NW31G41    N/A
$$

MTZ028>042-056>058-242200-
SOUTHCENTRAL AND SOUTHEAST MONTANA
CITY           SKY/WX    TMP DP  RH WIND       PRES   REMARKS
BAKER          CLOUDY    39  36  89 W26G36    29.78S WCI  28
BILLINGS       PTSUNNY   46  36  68 N15       30.06R
LIVINGSTON     CLOUDY    46  32  58 SW25G33   30.15R
MILES CITY     PTSUNNY   45  34  65 NW24G35   29.89S
* BIG TIMBER A CLOUDY    48  34  59 SW26G32   30.10F
* FORSYTH APT  PTSUNNY   45  34  65 W20G25    29.95S
* LAUREL APT   PTSUNNY   54  32  43 NW13G21    N/A
* ROUNDUP APT  PTSUNNY   46  30  54 NW21G28    N/A
* ALZADA       N/A       42  38  86 W19G26     N/A
* HYSHAM       N/A       44  29  56 W17G23     N/A
* LAME DEER    N/A       39  31  73 NW22G29    N/A   WCI  29
* REED POINT   N/A       51  35  54 W28G36     N/A
* ROSCOE HILL  N/A       48  23  37 W12G25     N/A
$$

REGIONAL REPORTS...DAKOTAS
CITY           SKY/WX    TMP DP  RH WIND       PRES   REMARKS
WILLISTON      CLOUDY    37  34  89 NW20      29.72R WCI  27
DICKINSON      CLOUDY    41  36  82 NW22G32   29.63R
BEACH          PTCLDY    39  37  93 NW25G33   29.75R WCI  28
CROSBY         CLOUDY    36  36 100 NW17G24   29.68R WCI  26
TIOGA          PTSUNNY   36  36 100 NW15      29.69R WCI  27
BISMARCK       LGT RAIN  39  30  70 NW14      29.58R VSB 1 1/2 WCI  31
GRAND FORKS    CLOUDY    30  28  92 N12       29.64R WCI  20
FARGO          CLOUDY    34  28  79 N6        29.59S WCI  29
BUFFALO SD     PTSUNNY   43  37  79 NW36G51   29.69R
RAPID CITY     LGT RAIN  48  39  71 NW38G48   29.77R
$$

REGIONAL REPORTS...WYOMING/IDAHO/WASHINGTON
CITY           SKY/WX    TMP DP  RH WIND       PRES   REMARKS
GILLETTE       CLOUDY    46  34  63 NW23G38   29.90R
SHERIDAN       LGT RAIN  43  32  65 NW31G44   29.97R
CODY           CLOUDY    46  27  48 NW12G25   30.08R
YELLOWSTONE LA CLOUDY    28  19  69 W5        30.31R WCI  22
SALMON         CLOUDY    30  21  69 CALM      30.38S
MULLAN PASS    FOG       37  37 100 VRB3      30.27S VSB M1/4
SAND POINT     CLOUDY    41  39  93 CALM      30.30F
SPOKANE        FOG       37  37 100 NE3       30.29F VSB M1/4
$$

REGIONAL REPORTS...ALBERTA
CITY           SKY/WX    TMP DP  RH WIND       PRES   REMARKS
CALGARY        PTSUNNY   52  18  26 W20G26    30.01S
LETHBRIDGE     PTSUNNY   55  25  31 W21       30.04R
MEDICINE HAT   SUNNY     50  32  50 W17G26    30.01R
EDMONTON       SUNNY     43  23  45 NW17G25   29.95R
WATERTON GATE  N/A       48  27  44 SW18G30    N/A
CARDSTON       N/A       52  28  40 W17G28     N/A
MILK RIVER     N/A       46  34  63 W21G28     N/A
$$

REGIONAL REPORTS...SASKATCHEWAN
CITY           SKY/WX    TMP DP  RH WIND       PRES   REMARKS
SWIFT CURRENT  CLOUDY    37  32  82 NW24G35   29.84R WCI  26
REGINA         PTSUNNY   36  34  92 NW13      29.68S WCI  27
VAL MARIE      N/A       45  34  65 NW30G40    N/A
ASSINIBOIA     N/A       37  32  82 NW26G35    N/A   WCI  25
CORONACH       N/A       39  32  76 NW23G29    N/A   WCI  28

$$



USA.gov is the U.S. government's official web portal to all federal, state and local government web resources and services.